Weather History for Sulphur, LA

Change the Weather History Date:

Monday, March 4, 2013

  Actual Average (KLCH) Record (KLCH)
Temperature  
Mean Temperature 62 °F 59 °F  
Max Temperature 73 °F 69 °F 84 °F (1910)
Min Temperature 50 °F 49 °F 23 °F (2002)
Degree Days  
Heating Degree Days 4 7  
Month to date heating degree days 30  
Since 1 July heating degree days 1312  
Cooling Degree Days 0 1  
Month to date cooling degree days 4  
Year to date cooling degree days 27  
Growing Degree Days 12 (Base 50)    
Moisture  
Dew Point 56 °F    
Average Humidity 81    
Maximum Humidity 100    
Minimum Humidity 60    
Precipitation  
Precipitation 0.00 in 0.12 in 2.35 in (1903)
Month to date precipitation 0.49  
Year to date precipitation 9.18  
Snow  
Snow 0.00 in 0.00 in T in (1954)
Month to date snowfall 0.0  
Since 1 July snowfall 0.1  
Snow Depth -    
Sea Level Pressure  
Sea Level Pressure 29.95 in    
Wind  
Wind Speed 12 mph (South)    
Max Wind Speed 28 mph    
Max Gust Speed 34 mph    
Visibility 10 miles    
Events      
T = Trace of Precipitation, MM = Missing Value Source: NWS Daily Summary

Daily Weather History Graph

Daily Weather History Graph

Search for Another Location

Airport:

Trip Planner

Search our weather history database for the weather conditions in past years. The results will help you decide how hot, cold, wet, or windy it might be!

Date:

Astronomy

Mar. 04, 2013 Rise Set
Actual Time 6:35 AM CST 6:14 PM CST
Civil Twilight 6:11 AM CST 6:38 PM CST
Nautical Twilight 5:44 AM CST 7:06 PM CST
Astronomical Twilight 5:16 AM CST 7:34 PM CST
Moon 12:28 AM CST (3/4) 11:14 AM CST (3/4)
Length of Visible Light 12h 26m
Length of Day
11h 38m
Waning Gibbous, 52% of the Moon is Illuminated
Mar 4
Waning Gibbous
Mar 4
Last Quarter
Mar 11
New
Mar 19
First Quarter
Mar 27
Full

Hourly Weather History & Observations

Time (CST) Temp. Dew Point Humidity Pressure Visibility Wind Dir Wind Speed Gust Speed Precip Events Conditions
12:15 AM 50.0 °F 44.6 °F 82% 30.07 in 10.0 mi SSE 6.9 mph - N/A   Clear
12:35 AM 50.0 °F 46.4 °F 87% 30.06 in 10.0 mi SSE 8.1 mph - N/A   Clear
12:55 AM 50.0 °F 46.4 °F 87% 30.07 in 10.0 mi South 5.8 mph - N/A   Clear
1:15 AM 50.0 °F 46.4 °F 87% 30.06 in 10.0 mi SSE 6.9 mph - N/A   Clear
1:55 AM 50.0 °F 46.4 °F 87% 30.05 in 10.0 mi SSE 8.1 mph - N/A   Clear
2:15 AM 51.8 °F 48.2 °F 88% 30.05 in 10.0 mi SSE 6.9 mph - N/A   Clear
2:35 AM 51.8 °F 48.2 °F 88% 30.04 in 10.0 mi SSE 8.1 mph - N/A   Clear
2:55 AM 51.8 °F 48.2 °F 88% 30.04 in 10.0 mi SSE 6.9 mph - N/A   Clear
3:35 AM 51.8 °F 50.0 °F 94% 30.03 in 10.0 mi SSE 4.6 mph - N/A   Clear
3:55 AM 50.0 °F 48.2 °F 94% 30.02 in 10.0 mi SSE 6.9 mph - N/A   Clear
4:15 AM 51.8 °F 50.0 °F 94% 30.01 in 10.0 mi SSE 8.1 mph - N/A   Clear
4:35 AM 51.8 °F 50.0 °F 94% 30.01 in 10.0 mi SE 5.8 mph - N/A   Clear
4:55 AM 53.6 °F 50.0 °F 88% 30.01 in 10.0 mi SE 6.9 mph - N/A   Clear
5:15 AM 51.8 °F 50.0 °F 94% 30.00 in 10.0 mi SSE 6.9 mph - N/A   Clear
5:35 AM 51.8 °F 51.8 °F 100% 30.00 in 10.0 mi SSE 6.9 mph - N/A   Clear
5:55 AM 53.6 °F 51.8 °F 94% 29.99 in 10.0 mi SSE 9.2 mph - N/A   Clear
6:15 AM 53.6 °F 51.8 °F 94% 29.99 in 10.0 mi SSE 10.4 mph - N/A   Clear
6:35 AM 53.6 °F 51.8 °F 94% 29.99 in 10.0 mi SSE 9.2 mph - N/A   Clear
6:55 AM 55.4 °F 53.6 °F 94% 29.98 in 10.0 mi SSE 9.2 mph - N/A   Clear
7:15 AM 57.2 °F 53.6 °F 88% 29.98 in 10.0 mi SSE 11.5 mph - N/A   Clear
7:35 AM 59.0 °F 55.4 °F 88% 29.99 in 10.0 mi South 10.4 mph - N/A   Clear
7:55 AM 60.8 °F 55.4 °F 82% 30.00 in 10.0 mi South 10.4 mph - N/A   Clear
8:15 AM 62.6 °F 57.2 °F 82% 30.00 in 10.0 mi South 16.1 mph 19.6 mph N/A   Clear
8:35 AM 64.4 °F 57.2 °F 77% 30.00 in 10.0 mi South 13.8 mph 20.7 mph N/A   Scattered Clouds
8:55 AM 64.4 °F 57.2 °F 77% 30.00 in 10.0 mi South 15.0 mph - N/A   Mostly Cloudy
9:15 AM 66.2 °F 57.2 °F 73% 30.01 in 10.0 mi South 17.3 mph 24.2 mph N/A   Mostly Cloudy
9:35 AM 68.0 °F 57.2 °F 68% 30.00 in 10.0 mi South 19.6 mph 27.6 mph N/A   Overcast
9:55 AM 68.0 °F 57.2 °F 68% 29.99 in 10.0 mi South 18.4 mph 28.8 mph N/A   Overcast
10:15 AM 69.8 °F 57.2 °F 64% 29.99 in 10.0 mi South 21.9 mph 27.6 mph N/A   Overcast
10:35 AM 71.6 °F 57.2 °F 60% 29.99 in 10.0 mi South 20.7 mph 33.4 mph N/A   Mostly Cloudy
10:55 AM 71.6 °F 59.0 °F 64% 29.99 in 10.0 mi South 21.9 mph 33.4 mph N/A   Overcast
11:15 AM 69.8 °F 57.2 °F 64% 29.99 in 10.0 mi South 23.0 mph 29.9 mph N/A   Overcast
11:35 AM 71.6 °F 59.0 °F 64% 29.98 in 10.0 mi South 21.9 mph 27.6 mph N/A   Overcast
11:55 AM 73.4 °F 59.0 °F 61% 29.98 in 10.0 mi South 24.2 mph 29.9 mph N/A   Mostly Cloudy
12:15 PM 71.6 °F 57.2 °F 60% 29.97 in 10.0 mi SSW 25.3 mph 33.4 mph N/A   Overcast
12:55 PM 71.6 °F 59.0 °F 64% 29.95 in 10.0 mi SSW 26.5 mph 34.5 mph N/A   Overcast
1:15 PM 71.6 °F 59.0 °F 64% 29.94 in 10.0 mi SSW 20.7 mph 29.9 mph N/A   Overcast
1:35 PM 71.6 °F 59.0 °F 64% 29.93 in 10.0 mi South 21.9 mph 29.9 mph N/A   Overcast
1:55 PM 71.6 °F 59.0 °F 64% 29.93 in 10.0 mi SSW 24.2 mph 31.1 mph N/A   Mostly Cloudy
2:15 PM 71.6 °F 59.0 °F 64% 29.92 in 10.0 mi South 20.7 mph 33.4 mph N/A   Mostly Cloudy
2:35 PM 71.6 °F 59.0 °F 64% 29.91 in 10.0 mi South 23.0 mph 28.8 mph N/A   Mostly Cloudy
2:55 PM 71.6 °F 59.0 °F 64% 29.91 in 10.0 mi SSW 20.7 mph 31.1 mph N/A   Mostly Cloudy
3:15 PM 71.6 °F 59.0 °F 64% 29.90 in 10.0 mi SSW 27.6 mph 33.4 mph N/A   Mostly Cloudy
3:35 PM 71.6 °F 60.8 °F 69% 29.90 in 10.0 mi South 17.3 mph 27.6 mph N/A   Mostly Cloudy
3:55 PM 71.6 °F 60.8 °F 69% 29.89 in 10.0 mi South 18.4 mph 26.5 mph N/A   Overcast
4:15 PM 71.6 °F 60.8 °F 69% 29.88 in 10.0 mi South 19.6 mph 24.2 mph N/A   Overcast
4:35 PM 69.8 °F 60.8 °F 73% 29.88 in 10.0 mi South 17.3 mph 26.5 mph N/A   Overcast
4:55 PM 69.8 °F 60.8 °F 73% 29.88 in 10.0 mi South 18.4 mph 26.5 mph N/A   Overcast
5:15 PM 69.8 °F 60.8 °F 73% 29.88 in 10.0 mi South 16.1 mph 25.3 mph N/A   Mostly Cloudy
5:35 PM 68.0 °F 60.8 °F 78% 29.87 in 10.0 mi South 17.3 mph 21.9 mph N/A   Mostly Cloudy
5:55 PM 66.2 °F 60.8 °F 83% 29.87 in 10.0 mi South 12.7 mph - N/A   Scattered Clouds
6:15 PM 66.2 °F 60.8 °F 83% 29.88 in 10.0 mi South 12.7 mph 17.3 mph N/A   Scattered Clouds
6:35 PM 64.4 °F 60.8 °F 88% 29.88 in 10.0 mi South 11.5 mph 17.3 mph N/A   Mostly Cloudy
6:55 PM 64.4 °F 60.8 °F 88% 29.88 in 10.0 mi South 10.4 mph - N/A   Overcast
7:15 PM 64.4 °F 60.8 °F 88% 29.87 in 10.0 mi SSE 13.8 mph - N/A   Mostly Cloudy
7:35 PM 64.4 °F 60.8 °F 88% 29.88 in 10.0 mi South 10.4 mph - N/A   Overcast
7:55 PM 64.4 °F 60.8 °F 88% 29.88 in 10.0 mi South 12.7 mph - N/A   Overcast
8:35 PM 64.4 °F 60.8 °F 88% 29.89 in 10.0 mi South 11.5 mph - N/A   Overcast
8:55 PM 64.4 °F 60.8 °F 88% 29.88 in 10.0 mi South 12.7 mph - N/A   Mostly Cloudy
9:15 PM 64.4 °F 60.8 °F 88% 29.89 in 10.0 mi South 9.2 mph - N/A   Overcast
9:35 PM 64.4 °F 60.8 °F 88% 29.90 in 10.0 mi South 9.2 mph - N/A   Overcast
9:55 PM 64.4 °F 60.8 °F 88% 29.91 in 10.0 mi South 10.4 mph - N/A   Overcast
10:15 PM 64.4 °F 60.8 °F 88% 29.91 in 10.0 mi South 9.2 mph - N/A   Overcast
10:35 PM 64.4 °F 60.8 °F 88% 29.90 in 10.0 mi SSE 9.2 mph - N/A   Mostly Cloudy
10:55 PM 62.6 °F 60.8 °F 94% 29.90 in 10.0 mi SSE 5.8 mph - N/A   Mostly Cloudy
11:15 PM 62.6 °F 60.8 °F 94% 29.89 in 7.0 mi SSE 8.1 mph - N/A   Mostly Cloudy
11:35 PM 62.6 °F 60.8 °F 94% 29.90 in 7.0 mi SSE 6.9 mph - N/A   Mostly Cloudy
11:55 PM 62.6 °F 60.8 °F 94% 29.90 in 7.0 mi SE 4.6 mph - N/A   Overcast